User: anonymous   Login
Location: Albany
(35.0000°S, 118.0000°E)
Time: 05:37:17
(UTC-04:00)
Language:

Atlas Centaur 2 - Orbit

View from above orbital plane
View from above orbital plane
View from above satellite
View from above satellite

Ground track
Ground track

The orbit data is extracted from the following two-line orbital elements,

1 00694U 63047A   17295.89444650  .00000823  00000-0  97938-4 0  9996
2 00694  30.3545 182.2227 0587351  59.5236 306.2042 14.02182489700658
Epoch (UTC): 22 October 2017 21:28:00
Eccentricity: 0.0587351
inclination: 30.3545°
perigee height: 459 km
apogee height: 1313 km
right ascension of ascending node: 182.2227°
argument of perigee: 59.5236°
revolutions per day: 14.02182489
mean anomaly at epoch: 306.2042°
orbit number at epoch: 70065

The dashed part of the orbit path shows where the satellite is in the earth's shadow,  

DLR